This is the latest recevied weather packets stored in our database for station/object DN9CHO-13. If no packets are shown the sender has not sent any weather packets the latest 10 day(s).
| Time | Temp. | Humidity | Pressure | Rain* | Wind** | Luminosity | Snow |
|---|---|---|---|---|---|---|---|
| 1787844025 | 27.22° C | 69% | 1012.2 hPa | 0 mm | - | 16 W/m² | - |
| 1787843421 | 27.22° C | 69% | 1012.1 hPa | 0 mm | - | 19 W/m² | - |
| 1787842818 | 27.22° C | 67% | 1012.1 hPa | 0 mm | - | 14 W/m² | - |
| 1787842234 | 27.22° C | 67% | 1012.2 hPa | 0 mm | - | 10 W/m² | - |
| 1787841631 | 27.78° C | 66% | 1012 hPa | 0 mm | - | 17 W/m² | - |
| 1787841027 | 27.78° C | 66% | 1011.9 hPa | 0 mm | - | 21 W/m² | - |
| 1787840423 | 27.78° C | 65% | 1011.8 hPa | 0 mm | - | 21 W/m² | - |
| 1787839820 | 27.78° C | 64% | 1011.9 hPa | 0 mm | - | 21 W/m² | - |
| 1787839216 | 27.78° C | 63% | 1011.8 hPa | 0 mm | - | 22 W/m² | - |
| 1787838632 | 28.33° C | 62% | 1011.9 hPa | 0 mm | - | 22 W/m² | - |
| 1787838029 | 28.33° C | 61% | 1012.1 hPa | 0 mm | - | 24 W/m² | - |
| 1787837425 | 28.33° C | 62% | 1012 hPa | 0 mm | - | 22 W/m² | - |
| 1787836821 | 28.33° C | 61% | 1011.7 hPa | 0 mm | - | 33 W/m² | - |
| 1787836218 | 28.33° C | 60% | 1011.9 hPa | 0 mm | - | 28 W/m² | - |
| 1787835634 | 28.33° C | 62% | 1011.8 hPa | 0 mm | - | 25 W/m² | - |
| 1787835030 | 28.33° C | 61% | 1011.9 hPa | 0 mm | - | 27 W/m² | - |
| 1787834426 | 28.33° C | 61% | 1011.9 hPa | 0 mm | - | 28 W/m² | - |
| 1787833823 | 28.33° C | 61% | 1012.1 hPa | 0 mm | - | 26 W/m² | - |
| 1787833219 | 28.33° C | 61% | 1012.1 hPa | 0 mm | - | 29 W/m² | - |
| 1787832616 | 28.33° C | 60% | 1012.2 hPa | 0 mm | - | 28 W/m² | - |
| 1787832032 | 27.78° C | 63% | 1012.2 hPa | 0 mm | - | 29 W/m² | - |
| 1787831429 | 27.78° C | 62% | 1012.2 hPa | 0 mm | - | 35 W/m² | - |
| 1787830831 | 28.89° C | 62% | 1012.1 hPa | 0 mm | - | 109 W/m² | - |
| 1787830221 | 27.78° C | 62% | 1012.1 hPa | 0 mm | - | 53 W/m² | - |
| 1787829617 | 27.22° C | 64% | 1012.1 hPa | 0 mm | - | 222 W/m² | - |
* Rain latest hour (hover to see other rain measurements)
** Current wind speed in m/s (hover to see current wind gust speed)